sat.trackr.live / text

‹ back to catalog

STARLINK-3661

NORAD 52129 · 2022-029AT

PAYLOAD ACTIVE UNKNOWN

§ Identity

Operator
Country
US
Launch date
2022-03-19
Launch site
AFETR
Launch vehicle
Mass (kg)
RCS (m²)

Purposes: comms

External: N2YO · Heavens-Above · Gunter

§ Orbital elements

Epoch: 2026-05-25T02:52:34.919040Z

Period
95.44 min
Inclination
53.2120°
Eccentricity
0.0001428
Mean motion
15.08806565 rev/d
Perigee alt
538.9 km
Apogee alt
540.8 km
Semi-major
6,918.0 km
B*
4.1918e-4
RAAN
86.0127°
Arg perigee
88.9380°
Mean anomaly
271.1776°
Rev number
23,247

§ Raw data

STARLINK-36611 52129U 22029AT  26145.11984860  .00006384  00000+0  41918-3 0  99952 52129  53.2120  86.0127 0001428  88.9380 271.1776 15.08806565232472

JSON: /api/v1/satellites/52129 · /tle

For live sub-satellite position, see the globe view (requires WebGL).

§ Visibility from observer

Set your observer location to see the next 7 days of passes ≥ 10°. The values pass through the URL so the page stays shareable.

No JS? Fill the form by hand. The geolocation button needs JavaScript.